Home   Weather   Rancho Cucamonga   Past weeks
Flag for USA

Past Weather in Rancho Cucamonga, California, USA — Yesterday and Last 2 Weeks

Now
64 °F

Passing clouds.


Feels Like: 64 °F
Forecast: 79 / 54 °F
Wind: 7 mph from West

Location: Ontario International Airport

Current Time: Oct 17, 2019 at 9:09:15 pm

Latest Report: Oct 17, 2019 at 7:53 pm


Visibility: 10 mi

Pressure: 29.75 "Hg

Humidity: 78%

Dew Point: 57 °F

Location of Rancho CucamongaLocation

Past Weather in Rancho Cucamonga — Graph

°F

Rancho Cucamonga Temperature Yesterday

Maximum temperature yesterday: 92 °F (at 12:53 pm)
Minimum temperature yesterday: 63 °F (at 3:53 am)
Average temperature yesterday: 75 °F

High & Low Weather Summary for the Past Weeks

 TemperatureHumidityPressure
High95 °F (Oct 6, 2:53 pm)93% (Oct 9, 7:00 am)30.03 "Hg (Oct 9, 7:00 am)
Low52 °F (Oct 12, 4:53 am)2% (Oct 10, 3:53 pm)29.71 "Hg (Oct 17, 4:53 pm)
Average70 °F42%29.88 "Hg
* Reported Oct 2 7:53 pm — Oct 17 7:53 pm, Rancho Cucamonga. Weather by CustomWeather, © 2019

Note: Actual official high and low records may vary slightly from our data, if they occured in-between our weather recording intervals... More about our weather records

Advertising

Rancho Cucamonga Weather History for the Previous 24 Hours

Scroll right to see more
 ConditionsComfort  
Time TempWeatherWind HumidityBarometerVisibility
7:53 pm
Thu, Oct 17
64 °FPassing clouds.7 mph78%29.75 "Hg10 mi
6:53 pm65 °FPassing clouds.13 mph70%29.74 "Hg10 mi
5:53 pm69 °FPassing clouds.12 mph61%29.72 "Hg10 mi
4:53 pm74 °FPassing clouds.12 mph43%29.71 "Hg10 mi
3:53 pm77 °FPassing clouds.13 mph40%29.71 "Hg10 mi
2:53 pm78 °FSunny.10 mph37%29.72 "Hg10 mi
1:53 pm77 °FSunny.10 mph40%29.75 "Hg10 mi
12:53 pm77 °FSunny.10 mph44%29.76 "Hg10 mi
11:53 am74 °FSunny.8 mph41%29.78 "Hg10 mi
10:53 am72 °FSunny.No wind49%29.80 "Hg10 mi
9:53 am67 °FSunny.No wind66%29.81 "Hg10 mi
8:53 am64 °FPassing clouds.No wind70%29.80 "Hg10 mi
6:53 am62 °FPartly cloudy.5 mph65%29.79 "Hg10 mi
5:53 am61 °FPassing clouds.6 mph75%29.77 "Hg9 mi
4:53 am63 °FPassing clouds.3 mph70%29.74 "Hg9 mi
3:53 am63 °FPartly cloudy.3 mph65%29.75 "Hg9 mi
2:53 am68 °FPartly cloudy.No wind47%29.75 "Hg10 mi
1:53 am64 °FPassing clouds.No wind56%29.76 "Hg10 mi
12:53 am66 °FPassing clouds.5 mph50%29.78 "Hg10 mi
11:53 pm
Wed, Oct 16
69 °FPassing clouds.No wind44%29.78 "Hg10 mi
10:53 pm69 °FPassing clouds.3 mph42%29.79 "Hg10 mi
9:53 pm71 °FPassing clouds.7 mph41%29.80 "Hg10 mi
Weather by CustomWeather, © 2019

See weather overview